Location: *
(41.7492°S, 135.4150°W)
Time: 00:30:19
(UTC+00:00)

Cosmos 1500 - Pass Details

Date: 20 September 2021
Orbit: 497 x 516 km, 82.5° (Epoch: 25 October)

Event Time Altitude Azimuth Distance (km) Brightness Sun altitude
Rises 13:21:55 0° 3° (N) 2,624 6.7 -17.7°
Reaches altitude 10° 13:24:02 10° 7° (N) 1,749 5.8 -17.4°
Maximum altitude 13:27:49 58° 85° (E) 620 3.8 -16.7°
Drops below altitude 10° 13:31:40 10° 164° (SSE) 1,783 6.3 -16.0°
Sets 13:33:51 0° 168° (SSE) 2,681 7.2 -15.6°
